Weather reports worldwide

Advertisment
Macon, France (7385): temperature & dewpoint: 20.09.2018 17:00:00 - 26.09.2018 17:00:00 (CEST)Macon, France (7385): temperature 5cm: 20.09.2018 17:00:00 - 26.09.2018 17:00:00 (CEST)Macon, France (7385): temperature -20cm & temperature -100cm: 20.09.2018 17:00:00 - 26.09.2018 17:00:00 (CEST)Macon, France (7385): wind speed & gusts: 20.09.2018 17:00:00 - 26.09.2018 17:00:00 (CEST)Macon, France (7385): wind direction: 20.09.2018 17:00:00 - 26.09.2018 17:00:00 (CEST)Macon, France (7385): reduced air pressure: 20.09.2018 17:00:00 - 26.09.2018 17:00:00 (CEST)Macon, France (7385): visibility: 20.09.2018 17:00:00 - 26.09.2018 17:00:00 (CEST)Macon, France (7385): sunshine duration: 20.09.2018 17:00:00 - 26.09.2018 17:00:00 (CEST)Macon, France (7385): precipitation: 20.09.2018 17:00:00 - 26.09.2018 17:00:00 (CEST)
Date & Time tt [°C] td [°C] tt 5cm [°C] tt -20cm [°C] tt -100cm [°C] ff [km/h] ff [kn] fx [km/h] fx [kn] dd ppp [hPa] vv [km] sd [min] rr [mm]
26.09.2018 17:00:00 24,7 8,6 28,9 17,3 19,3 6 3 18 10 SSE 1030,5 20 60 0,0
26.09.2018 16:00:00 23,7 8,1 28,3 17,0 19,3 11 6 18 10 SE 1030,9 20 60 0,0
26.09.2018 15:00:00 22,7 8,0 26,1 16,7 19,3 9 5 22 12 SE 1031,8 20 60 0,0
26.09.2018 14:00:00 20,8 7,4 23,0 16,5 19,3 11 6 22 12 SSE 1032,7 20 60 0,0
26.09.2018 13:00:00 18,4 6,2 22,0 16,3 19,4 11 6 23 13 SSE 1033,6 20 60 0,0
26.09.2018 12:00:00 16,3 5,8 20,5 16,2 19,4 16 9 22 12 SSE 1034,2 20 60 0,0
26.09.2018 11:00:00 13,8 5,4 17,3 16,3 19,4 6 4 14 7 SE 1034,7 20 60 0,0
26.09.2018 10:00:00 11,1 5,0 14,2 16,4 19,4 5 3 8 5 SE 1034,9 20 60 0,0
26.09.2018 09:00:00 8,8 5,7 5,1 16,6 19,4 0 0 4 2 N 1034,4 20 60 0,0
26.09.2018 08:00:00 5,0 3,0 0,9 16,8 19,4 0 0 10 5 N 1033,9 20 6 0,0
26.09.2018 07:00:00 4,6 2,8 1,0 16,9 19,5 2 1 6 3 NNW 1033,6 20 0 0,0
26.09.2018 06:00:00 5,4 2,7 1,6 17,1 19,5 4 2 8 5 S 1033,1 20 0 0,0
26.09.2018 05:00:00 6,4 3,0 3,3 17,3 19,5 6 3 10 6 WNW 1032,9 20 0 0,0
26.09.2018 04:00:00 8,6 3,4 6,3 17,4 19,5 9 5 15 8 NW 1032,7 20 0 0,0
26.09.2018 03:00:00 9,6 3,8 8,2 17,5 19,5 10 6 18 10 NW 1032,6 20 0 0,0
26.09.2018 02:00:00 10,3 3,8 8,9 17,7 19,5 10 5 18 10 NW 1032,4 20 0 0,0
26.09.2018 01:00:00 10,5 4,0 9,3 17,8 19,5 12 7 22 12 NW 1032,3 20 0 0,0
26.09.2018 00:00:00 11,6 4,1 10,5 17,9 19,5 16 8 22 12 NW 1031,9 20 0 0,0
25.09.2018 23:00:00 12,4 3,9 11,2 18,0 19,5 14 8 21 11 WNW 1031,5 20 0 0,0
25.09.2018 22:00:00 12,7 4,1 11,1 18,1 19,6 11 6 18 10 WNW 1031,2 20 0 0,0
25.09.2018 21:00:00 14,6 4,3 12,9 18,1 19,6 11 6 18 10 NW 1031,1 20 0 0,0
25.09.2018 20:00:00 15,4 4,4 13,2 18,0 19,6 8 4 19 11 NNW 1030,8 20 10 0,0
25.09.2018 19:00:00 17,7 3,9 18,9 17,9 19,6 14 8 27 14 N 1030,4 20 60 0,0
25.09.2018 18:00:00 19,4 3,5 23,8 17,7 19,6 14 7 26 14 N 1030,1 20 60 0,0
25.09.2018 17:00:00 19,7 3,8 24,6 17,4 19,6 15 8 28 15 NNE 1030,2 20 60 0,0
25.09.2018 16:00:00 19,4 3,9 24,4 17,2 19,6 14 8 29 15 NNE 1030,7 20 60 0,0
25.09.2018 15:00:00 18,8 3,8 23,5 16,9 19,6 14 8 26 14 NNE 1031,2 20 60 0,0
25.09.2018 14:00:00 17,7 3,6 20,1 16,7 19,6 13 7 24 13 NNE 1031,8 20 60 0,0
25.09.2018 13:00:00 16,0 3,7 21,0 16,5 19,6 11 6 19 10 NE 1032,2 20 60 0,0
25.09.2018 12:00:00 14,6 4,3 19,0 16,5 19,6 10 5 24 13 NNE 1032,6 20 60 0,0
25.09.2018 11:00:00 13,0 3,9 17,1 16,6 19,6 14 8 29 16 NNE 1033,0 20 60 0,0
25.09.2018 10:00:00 11,1 4,1 13,4 16,7 19,7 15 8 28 15 N 1033,1 20 60 0,0
25.09.2018 09:00:00 9,5 4,1 8,3 16,9 19,7 13 7 23 12 N 1032,8 20 60 0,0
25.09.2018 08:00:00 7,9 3,7 6,4 17,0 19,7 10 6 29 16 NNW 1032,4 20 7 0,0
25.09.2018 07:00:00 8,0 3,3 6,9 17,2 19,7 12 6 32 17 N 1031,9 20 0 0,0
25.09.2018 06:00:00 8,4 3,4 7,4 17,4 19,7 19 10 42 23 N 1031,8 20 0 0,0
25.09.2018 05:00:00 9,0 3,4 8,2 17,6 19,7 25 13 45 25 N 1031,8 20 0 0,0
25.09.2018 04:00:00 9,6 3,1 8,8 17,8 19,7 24 13 44 24 N 1031,9 20 0 0,0
25.09.2018 03:00:00 9,9 3,0 9,1 18,0 19,7 24 13 45 24 N 1032,0 20 0 0,0
25.09.2018 02:00:00 10,5 2,8 9,5 18,2 19,7 19 10 39 21 N 1032,1 20 0 0,0
25.09.2018 01:00:00 11,0 2,8 10,0 18,3 19,7 21 11 39 21 N 1032,3 20 0 0,0
25.09.2018 00:00:00 11,6 2,9 10,6 18,6 19,7 20 11 38 21 N 1032,3 20 0 0,0
24.09.2018 23:00:00 12,2 2,9 11,3 18,8 19,7 22 12 46 25 N 1032,1 20 0 0,0
24.09.2018 22:00:00 12,6 2,7 11,5 18,9 19,7 23 12 41 22 N 1031,9 20 0 0,0
24.09.2018 21:00:00 13,2 2,7 12,2 19,0 19,7 22 12 47 26 N 1031,7 20 0 0,0
24.09.2018 20:00:00 13,8 3,5 12,7 19,1 19,7 20 11 45 24 N 1031,1 20 12 0,0
24.09.2018 19:00:00 15,4 4,1 16,3 19,1 19,7 29 16 56 31 N 1030,1 20 60 0,0
24.09.2018 18:00:00 16,4 5,0 18,3 19,1 19,7 32 17 50 27 N 1030,1 20 51 0,0
24.09.2018 17:00:00 17,1 5,4 20,2 19,1 19,7 32 18 56 30 N 1030,0 20 60 0,0
24.09.2018 16:00:00 17,2 6,1 17,9 19,1 19,7 31 17 53 28 N 1030,0 20 47 0,0
24.09.2018 15:00:00 15,8 6,0 17,1 19,1 19,7 27 15 51 27 N 1030,7 20 20 0,0
24.09.2018 14:00:00 15,0 7,0 16,6 19,1 19,7 26 14 50 27 N 1030,8 20 13 0,0
24.09.2018 13:00:00 14,1 7,4 14,8 19,2 19,7 27 15 44 24 N 1031,1 20 33 0,0
24.09.2018 12:00:00 12,6 7,1 14,6 19,3 19,7 26 14 46 25 N 1031,6 20 30 0,0
24.09.2018 11:00:00 12,2 6,7 13,5 19,5 19,7 26 14 42 23 N 1031,5 20 41 0,0
24.09.2018 10:00:00 11,0 6,7 12,8 19,7 19,7 26 14 43 23 N 1031,2 20 56 0,0
24.09.2018 09:00:00 10,1 6,8 10,1 20,0 19,8 25 13 44 24 N 1030,8 20 60 0,0
24.09.2018 08:00:00 9,8 7,0 8,9 20,1 19,8 20 11 39 21 N 1030,2 20 8 0,0
24.09.2018 07:00:00 9,8 7,0 9,2 20,4 19,8 14 8 27 15 N 1029,5 20 0 0,0
24.09.2018 06:00:00 10,3 7,4 9,4 20,6 19,8 9 5 21 11 NW 1029,1 20 0 0,0
24.09.2018 05:00:00 11,3 8,5 10,5 20,7 19,8 8 5 29 15 NW 1028,6 20 0 0,0
24.09.2018 04:00:00 11,6 9,0 10,5 20,9 19,8 15 8 28 15 NW 1027,8 20 0 0,0
24.09.2018 03:00:00 12,9 11,1 12,2 21,0 19,8 11 6 23 12 NNW 1027,2 20 0 0,0
24.09.2018 02:00:00 13,2 11,4 12,5 21,2 19,8 11 6 21 12 NNW 1026,6 19 0 0,2
24.09.2018 01:00:00 13,2 11,8 12,7 21,3 19,8 9 5 33 18 NNW 1025,9 20 0 0,4
24.09.2018 00:00:00 14,0 12,0 13,2 21,4 19,8 10 6 45 24 NNW 1025,6 20 0 0,0
23.09.2018 23:00:00 14,5 12,9 13,9 21,5 19,8 23 12 46 25 N 1023,5 19 0 1,0
23.09.2018 22:00:00 17,5 15,1 16,3 21,4 19,8 26 14 69 37 NNW 1020,8 8 0 1,0
23.09.2018 21:00:00 24,5 15,1 23,3 21,4 19,8 13 7 29 16 WSW 1017,9 20 0 0,0
23.09.2018 20:00:00 24,8 15,1 23,7 21,3 19,8 12 7 39 21 WSW 1017,2 20 4 0,0
23.09.2018 19:00:00 25,9 14,7 25,6 21,1 19,8 13 7 48 26 WSW 1017,3 20 23 0,0
23.09.2018 18:00:00 28,2 15,5 28,5 20,9 19,8 18 10 37 20 W 1016,3 20 31 0,0
23.09.2018 17:00:00 30,4 15,7 29,0 20,6 19,8 11 6 33 18 SW 1015,6 20 20 0,0
23.09.2018 16:00:00 29,1 15,2 30,7 20,3 19,8 11 6 31 17 SW 1016,2 20 27 0,0
23.09.2018 15:00:00 29,2 15,7 29,7 20,2 19,9 12 7 32 17 WSW 1017,1 20 41 0,0
23.09.2018 14:00:00 27,0 15,4 27,3 20,0 19,8 10 5 27 15 WSW 1018,3 20 14 0,0
23.09.2018 13:00:00 25,2 14,6 26,7 19,9 19,8 9 5 30 16 SW 1019,1 20 2 0,0
23.09.2018 12:00:00 24,3 11,9 23,9 19,8 19,8 16 8 26 14 S 1019,8 20 5 0,0
23.09.2018 11:00:00 22,0 10,5 20,7 19,9 19,8 14 8 21 11 S 1020,5 20 0 0,0
23.09.2018 10:00:00 20,0 9,0 19,1 19,9 19,8 11 6 19 10 S 1020,9 18 0 0,0
23.09.2018 09:00:00 19,0 7,7 18,3 20,0 19,9 9 5 14 8 S 1021,0 20 0 0,0
23.09.2018 08:00:00 18,7 7,8 18,1 20,0 19,9 8 4 16 9 S 1021,0 20 0 0,0
23.09.2018 07:00:00 18,5 7,6 17,9 20,1 19,9 10 5 16 9 S 1020,9 20 0 0,0
23.09.2018 06:00:00 18,5 7,0 17,4 20,2 19,9 8 5 11 6 S 1021,2 20 0 0,0
23.09.2018 05:00:00 17,9 7,9 17,4 20,2 19,9 4 2 9 5 SSE 1021,5 20 0 0,0
23.09.2018 04:00:00 17,9 7,6 17,4 20,3 19,9 7 4 14 7 SSE 1021,7 20 0 0,0
23.09.2018 03:00:00 17,9 6,7 16,6 20,4 19,9 12 7 18 10 S 1022,4 20 0 0,0
23.09.2018 02:00:00 16,9 7,5 15,9 20,5 19,9 11 6 15 8 SSE 1022,7 20 0 0,0
23.09.2018 01:00:00 16,4 8,6 14,5 20,6 19,9 6 3 8 5 SE 1022,7 20 0 0,0
23.09.2018 00:00:00 15,6 8,1 11,8 20,7 19,9 3 2 5 3 S 1022,7 20 0 0,0
22.09.2018 23:00:00 15,7 7,2 12,7 20,8 19,9 2 1 5 3 S 1022,6 20 0 0,0
22.09.2018 22:00:00 16,4 7,1 12,4 20,9 19,9 0 0 6 3 N 1022,2 20 0 0,0
22.09.2018 21:00:00 17,3 7,1 12,7 20,9 19,9 0 0 9 5 N 1021,8 20 0 0,0
22.09.2018 20:00:00 19,4 5,8 16,0 20,7 19,9 6 3 7 4 SE 1021,3 5 0 0,0
22.09.2018 19:00:00 20,9 5,7 20,7 20,6 19,9 4 2 15 8 SE 1021,2 20 28 0,0
22.09.2018 18:00:00 21,9 5,7 25,4 20,4 19,9 7 4 14 7 SE 1021,2 20 60 0,0
22.09.2018 17:00:00 21,0 5,7 23,1 20,2 19,9 5 3 16 9 ESE 1021,7 20 5 0,0
22.09.2018 16:00:00 20,7 6,6 22,8 19,9 19,9 6 4 16 9 ESE 1022,1 20 26 0,0
22.09.2018 15:00:00 20,2 6,2 25,3 19,7 19,9 7 4 18 10 SSE 1022,8 20 58 0,0
22.09.2018 14:00:00 19,5 6,9 22,9 19,6 19,9 8 4 16 9 ENE 1023,8 20 60 0,0
22.09.2018 13:00:00 18,4 6,9 23,0 19,4 19,9 6 4 14 8 E 1024,3 20 52 0,0
22.09.2018 12:00:00 17,9 8,5 19,1 19,4 19,9 4 2 13 7 N 1024,9 20 35 0,0
22.09.2018 11:00:00 15,3 9,6 15,9 19,5 19,9 4 2 11 6 E 1025,5 20 18 0,0
22.09.2018 10:00:00 12,8 10,3 12,7 19,6 19,9 2 1 6 3 E 1025,6 20 1 0,0
22.09.2018 09:00:00 11,6 9,8 9,6 19,8 19,9 2 1 6 3 E 1025,7 20 38 0,0
22.09.2018 08:00:00 10,5 8,1 5,2 20,0 19,9 5 3 19 11 N 1025,2 20 4 0,0
22.09.2018 07:00:00 8,5 7,7 4,7 20,2 19,9 0 0 5 3 N 1025,3 2,0 0 0,0
22.09.2018 06:00:00 9,0 8,1 5,8 20,4 19,9 5 3 9 5 WNW 1025,3 20 0 0,0
22.09.2018 05:00:00 9,3 8,4 6,8 20,6 19,9 4 2 11 6 WNW 1025,2 20 0 0,0
22.09.2018 04:00:00 9,3 8,5 6,4 20,8 19,9 5 3 8 4 WNW 1025,6 20 0 0,0
22.09.2018 03:00:00 9,3 8,4 6,4 21,0 19,9 5 3 8 4 W 1025,5 20 0 0,0
22.09.2018 02:00:00 10,4 9,5 7,2 21,2 19,9 4 2 5 3 NNW 1025,3 20 0 0,0
22.09.2018 01:00:00 10,5 9,4 7,2 21,5 19,9 0 0 5 3 N 1025,1 20 0 0,0
22.09.2018 00:00:00 11,5 10,1 8,6 21,6 19,9 0 0 8 4 N 1025,0 20 0 0,0
21.09.2018 23:00:00 11,9 10,3 9,1 21,8 19,9 3 1 12 6 WNW 1024,5 20 0 0,0
21.09.2018 22:00:00 13,3 9,7 11,5 21,9 19,9 0 0 8 4 N 1024,2 20 0 0,0
21.09.2018 21:00:00 13,9 9,9 12,9 22,1 19,9 6 3 19 11 NE 1023,4 20 0 0,0
21.09.2018 20:00:00 14,4 9,8 13,7 22,2 19,9 6 3 34 18 NW 1022,6 20 0 0,0
21.09.2018 19:00:00 14,0 9,6 12,0 22,3 19,9 16 9 67 36 WNW 1020,9 20 0 0,0
21.09.2018 18:00:00 15,0 10,0 15,1 22,3 19,9 45 24 71 38 WNW 1019,4 20 0 0,0
21.09.2018 17:00:00 18,3 12,9 18,5 22,2 19,9 39 21 68 37 WNW 1017,7 20 0 0,0
21.09.2018 16:00:00 26,2 8,7 26,4 22,1 19,8 17 9 32 17 WSW 1015,0 20 0 0,0
21.09.2018 15:00:00 27,3 10,5 27,9 21,9 19,9 10 5 29 16 W 1014,0 20 0 0,0
21.09.2018 14:00:00 28,2 9,9 28,8 21,6 19,8 11 6 22 12 WSW 1014,5 20 0 0,0
21.09.2018 13:00:00 27,2 12,8 30,2 21,5 19,8 4 2 12 6 SSE 1014,6 20 12 0,0
21.09.2018 12:00:00 26,8 12,8 28,2 21,5 19,9 5 3 13 7 ENE 1015,0 20 45 0,0
21.09.2018 11:00:00 25,1 12,3 27,4 21,5 19,8 2 1 11 6 S 1015,2 20 51 0,0
21.09.2018 10:00:00 22,5 12,7 20,0 21,6 19,8 3 2 19 11 SE 1015,2 20 22 0,0
21.09.2018 09:00:00 20,0 12,7 16,5 21,7 19,8 8 5 16 9 S 1014,8 20 19 0,0
21.09.2018 08:00:00 17,1 12,6 15,4 21,9 19,8 8 4 15 8 S 1014,6 20 2 0,0
21.09.2018 07:00:00 17,3 12,4 13,7 22,1 19,8 11 6 17 9 S 1014,2 20 0 0,0
21.09.2018 06:00:00 17,2 12,5 15,6 22,3 19,8 8 5 16 9 SSE 1014,3 20 0 0,0
21.09.2018 05:00:00 18,1 12,3 16,4 22,4 19,8 5 3 18 10 W 1014,6 20 0 0,0
21.09.2018 04:00:00 17,9 12,6 15,8 22,6 19,8 10 5 19 10 S 1014,5 20 0 0,0
21.09.2018 03:00:00 17,3 13,0 13,2 22,8 19,8 12 6 19 10 SSE 1014,8 20 0 0,0
21.09.2018 02:00:00 16,7 13,8 12,4 23,0 19,8 5 3 7 4 SSE 1015,0 20 0 0,0
21.09.2018 01:00:00 17,1 13,0 14,5 23,1 19,8 3 1 9 5 SSW 1015,4 20 0 0,0
21.09.2018 00:00:00 18,8 13,4 17,2 23,2 19,8 7 4 11 6 W 1015,6 20 0 0,0
20.09.2018 23:00:00 19,9 13,6 18,5 23,3 19,8 8 5 11 6 W 1015,6 20 0 0,0
20.09.2018 22:00:00 21,6 13,5 19,7 23,4 19,8 8 4 11 6 WNW 1015,7 20 0 0,0
20.09.2018 21:00:00 22,8 13,3 19,5 23,4 19,8 5 3 10 5 WNW 1015,6 20 0 0,0
20.09.2018 20:00:00 25,1 14,2 19,7 23,3 19,8 6 4 9 5 N 1015,3 20 18 0,0
20.09.2018 19:00:00 28,5 14,7 28,0 23,1 19,8 5 3 12 6 ENE 1015,2 20 60 0,0
20.09.2018 18:00:00 29,7 14,7 31,4 22,9 19,8 4 2 15 8 NNE 1015,3 20 55 0,0
20.09.2018 17:00:00 30,0 14,5 34,9 22,6 19,8 8 4 14 8 NE 1015,8 20 60 0,0

tt = temperature
td = dewpoint
tt 5cm = temperature 5cm
tt -20cm = temperature -20cm
tt -100cm = temperature -100cm
ff = wind speed
fx = gusts
dd = wind direction
ppp = reduced air pressure
vv = visibility
sd = sunshine duration
rr = precipitation

Next stations